| time (UTC) | temp F | wind direction | speed knots | gust knots | rain 1hr in | rain 24hr in | rain mn in | humidity % | barometer mb |
| 20260902214119 | 66 | 127 | 3.5 | 8.7 | 0.00 | 0.00 | 0.00 | 62 | 1022.1 |
| 20260902213505 | 66 | 145 | 1.7 | 6.1 | 0.00 | 0.00 | 0.00 | 62 | 1022.0 |
| 20260902211120 | 66 | 177 | 2.6 | 5.2 | 0.00 | 0.00 | 0.00 | 64 | 1021.7 |
| 20260902210506 | 67 | 149 | 1.7 | 6.1 | 0.00 | 0.00 | 0.00 | 62 | 1021.7 |
| 20260902205506 | 66 | 176 | 1.7 | 4.3 | 0.00 | 0.00 | 0.00 | 64 | 1021.7 |
| 20260902204120 | 67 | 127 | 0.9 | 5.2 | 0.00 | 0.00 | 0.00 | 61 | 1021.3 |
| 20260902203505 | 68 | 104 | 2.6 | 6.1 | 0.00 | 0.00 | 0.00 | 60 | 1021.3 |
| 20260902202506 | 68 | 113 | 4.3 | 9.6 | 0.00 | 0.00 | 0.00 | 59 | 1021.2 |
| 20260902201119 | 68 | 133 | 2.6 | 6.1 | 0.00 | 0.00 | 0.00 | 58 | 1021.2 |
| 20260902200506 | 68 | 142 | 3.5 | 6.1 | 0.00 | 0.00 | 0.00 | 60 | 1021.3 |
| 20260902195506 | 68 | 137 | 3.5 | 7.0 | 0.00 | 0.00 | 0.00 | 60 | 1021.3 |
| 20260902194119 | 68 | 138 | 3.5 | 7.8 | 0.00 | 0.00 | 0.00 | 59 | 1021.2 |
| 20260902193506 | 68 | 157 | 0.9 | 3.5 | 0.00 | 0.00 | 0.00 | 60 | 1021.2 |
| 20260902192506 | 67 | 82 | 0.9 | 2.6 | 0.00 | 0.00 | 0.00 | 62 | 1021.1 |
| 20260902191119 | 68 | 82 | 0.9 | 2.6 | 0.00 | 0.00 | 0.00 | 66 | 1020.9 |
| 20260902190505 | 68 | 60 | 0.9 | 1.7 | 0.00 | 0.00 | 0.00 | 61 | 1020.6 |
| 20260902185506 | 69 | 75 | 0.9 | 2.6 | 0.00 | 0.00 | 0.00 | 60 | 1020.5 |
| 20260902184119 | 70 | 360 | 0.0 | 1.7 | 0.00 | 0.00 | 0.00 | 55 | 1020.2 |
| 20260902183506 | 71 | 35 | 0.9 | 2.6 | 0.00 | 0.00 | 0.00 | 56 | 1020.1 |
| 20260902182506 | 71 | 346 | 1.7 | 4.3 | 0.00 | 0.00 | 0.00 | 55 | 1019.9 |
| 20260902181119 | 72 | 355 | 0.9 | 2.6 | 0.00 | 0.00 | 0.00 | 50 | 1019.5 |
| 20260902180506 | 73 | 334 | 0.9 | 4.3 | 0.00 | 0.00 | 0.00 | 47 | 1019.4 |
| 20260902175506 | 74 | 337 | 1.7 | 4.3 | 0.00 | 0.00 | 0.00 | 47 | 1019.2 |
| 20260902174119 | 74 | 336 | 1.7 | 5.2 | 0.00 | 0.00 | 0.00 | 46 | 1019.1 |
| 20260902173505 | 74 | 321 | 0.9 | 4.3 | 0.00 | 0.00 | 0.00 | 45 | 1018.9 |
| 20260902172506 | 75 | 304 | 1.7 | 5.2 | 0.00 | 0.00 | 0.00 | 44 | 1018.7 |
| 20260902171119 | 75 | 287 | 1.7 | 9.6 | 0.00 | 0.00 | 0.00 | 44 | 1018.6 |
| 20260902170506 | 76 | 325 | 0.9 | 3.5 | 0.00 | 0.00 | 0.00 | 44 | 1018.5 |
| 20260902165506 | 76 | 287 | 1.7 | 9.6 | 0.00 | 0.00 | 0.00 | 42 | 1018.3 |
| 20260902164119 | 76 | 288 | 1.7 | 8.7 | 0.00 | 0.00 | 0.00 | 40 | 1018.2 |
| 20260902163506 | 77 | 297 | 1.7 | 7.8 | 0.00 | 0.00 | 0.00 | 39 | 1018.1 |
| 20260902162506 | 79 | 294 | 1.7 | 8.7 | 0.00 | 0.00 | 0.00 | 38 | 1017.8 |
| 20260902161119 | 79 | 256 | 2.6 | 7.0 | 0.00 | 0.00 | 0.00 | 37 | 1017.8 |
| 20260902160505 | 78 | 271 | 2.6 | 12.2 | 0.00 | 0.00 | 0.00 | 37 | 1017.6 |
| 20260902155506 | 79 | 278 | 2.6 | 8.7 | 0.00 | 0.00 | 0.00 | 35 | 1017.5 |
| 20260902154119 | 79 | 283 | 2.6 | 10.4 | 0.00 | 0.00 | 0.00 | 36 | 1017.5 |
| 20260902153506 | 79 | 319 | 2.6 | 10.4 | 0.00 | 0.00 | 0.00 | 39 | 1017.6 |
| 20260902152505 | 79 | 287 | 2.6 | 9.6 | 0.00 | 0.00 | 0.00 | 40 | 1017.6 |
| 20260902151119 | 78 | 279 | 2.6 | 8.7 | 0.00 | 0.00 | 0.00 | 38 | 1017.6 |
| 20260902150506 | 79 | 281 | 2.6 | 7.0 | 0.00 | 0.00 | 0.00 | 37 | 1017.6 |
| 20260902145506 | 80 | 290 | 1.7 | 6.1 | 0.00 | 0.00 | 0.00 | 37 | 1017.5 |
| 20260902144119 | 80 | 289 | 2.6 | 11.3 | 0.00 | 0.00 | 0.00 | 37 | 1017.5 |
| 20260902143505 | 79 | 306 | 1.7 | 7.0 | 0.00 | 0.00 | 0.00 | 38 | 1017.7 |
| 20260902142506 | 80 | 276 | 2.6 | 7.8 | 0.00 | 0.00 | 0.00 | 38 | 1017.7 |
| 20260902141119 | 79 | 311 | 1.7 | 5.2 | 0.00 | 0.00 | 0.00 | 39 | 1017.9 |
| 20260902140506 | 80 | 276 | 3.5 | 9.6 | 0.00 | 0.00 | 0.00 | 36 | 1017.9 |
| 20260902135506 | 79 | 286 | 1.7 | 7.8 | 0.00 | 0.00 | 0.00 | 37 | 1018.0 |
| 20260902134117 | 80 | 288 | 2.6 | 9.6 | 0.00 | 0.00 | 0.00 | 39 | 1017.9 |
| 20260902133506 | 78 | 275 | 2.6 | 8.7 | 0.00 | 0.00 | 0.00 | 33 | 1018.2 |
| 20260902132506 | 79 | 281 | 3.5 | 8.7 | 0.00 | 0.00 | 0.00 | 38 | 1018.2 |
| 20260902131119 | 79 | 284 | 2.6 | 7.0 | 0.00 | 0.00 | 0.00 | 35 | 1018.3 |
| 20260902130506 | 78 | 272 | 3.5 | 10.4 | 0.00 | 0.00 | 0.00 | 32 | 1018.3 |
| 20260902125506 | 78 | 300 | 1.7 | 6.1 | 0.00 | 0.00 | 0.00 | 38 | 1018.4 |
| 20260902124118 | 77 | 293 | 2.6 | 10.4 | 0.00 | 0.00 | 0.00 | 39 | 1018.6 |
| 20260902123506 | 79 | 308 | 2.6 | 7.8 | 0.00 | 0.00 | 0.00 | 38 | 1018.5 |
| 20260902122506 | 80 | 326 | 1.7 | 7.8 | 0.00 | 0.00 | 0.00 | 38 | 1018.5 |
| 20260902121119 | 79 | 340 | 2.6 | 10.4 | 0.00 | 0.00 | 0.00 | 41 | 1018.7 |
| 20260902120505 | 80 | 330 | 2.6 | 11.3 | 0.00 | 0.00 | 0.00 | 43 | 1018.6 |
| 20260902115505 | 78 | 342 | 1.7 | 7.0 | 0.00 | 0.00 | 0.00 | 44 | 1019.0 |
| 20260902114119 | 76 | 266 | 3.5 | 9.6 | 0.00 | 0.00 | 0.00 | 47 | 1019.4 |
| 20260902113506 | 76 | 263 | 3.5 | 9.6 | 0.00 | 0.00 | 0.00 | 49 | 1019.5 |
| 20260902112506 | 74 | 275 | 2.6 | 7.8 | 0.00 | 0.00 | 0.00 | 50 | 1019.8 |
| 20260902111119 | 74 | 300 | 2.6 | 10.4 | 0.00 | 0.00 | 0.00 | 52 | 1019.7 |
| 20260902110506 | 76 | 321 | 1.7 | 7.0 | 0.00 | 0.00 | 0.00 | 54 | 1019.4 |
| 20260902105505 | 73 | 292 | 2.6 | 7.8 | 0.00 | 0.00 | 0.00 | 56 | 1019.8 |
| 20260902104119 | 73 | 323 | 1.7 | 7.8 | 0.00 | 0.00 | 0.00 | 56 | 1020.0 |
| 20260902103506 | 74 | 328 | 1.7 | 7.0 | 0.00 | 0.00 | 0.00 | 55 | 1019.8 |
| 20260902102505 | 73 | 323 | 1.7 | 5.2 | 0.00 | 0.00 | 0.00 | 54 | 1019.9 |
| 20260902101119 | 72 | 288 | 0.9 | 3.5 | 0.00 | 0.00 | 0.00 | 52 | 1020.0 |
| 20260902100506 | 72 | 218 | 1.7 | 5.2 | 0.00 | 0.00 | 0.00 | 53 | 1020.0 |
| 20260902095506 | 71 | 233 | 1.7 | 5.2 | 0.00 | 0.00 | 0.00 | 56 | 1020.2 |
| 20260902094119 | 70 | 271 | 0.9 | 2.6 | 0.00 | 0.00 | 0.00 | 57 | 1020.4 |
| 20260902093506 | 70 | 347 | 0.9 | 2.6 | 0.00 | 0.00 | 0.00 | 58 | 1020.4 |
| 20260902092505 | 70 | 332 | 1.7 | 3.5 | 0.00 | 0.00 | 0.00 | 59 | 1020.6 |
| 20260902091118 | 70 | 335 | 0.9 | 3.5 | 0.00 | 0.00 | 0.00 | 63 | 1020.7 |
| 20260902090506 | 69 | 319 | 0.9 | 3.5 | 0.00 | 0.00 | 0.00 | 59 | 1020.8 |
| 20260902084118 | 69 | 218 | 0.9 | 3.5 | 0.00 | 0.00 | 0.00 | 58 | 1020.8 |
| 20260902083506 | 69 | 359 | 0.9 | 2.6 | 0.00 | 0.00 | 0.00 | 60 | 1020.7 |
| 20260902082506 | 67 | 57 | 1.7 | 3.5 | 0.00 | 0.00 | 0.00 | 64 | 1020.8 |
| 20260902081118 | 67 | 62 | 1.7 | 2.6 | 0.00 | 0.00 | 0.00 | 67 | 1020.9 |
| 20260902080505 | 66 | 43 | 1.7 | 3.5 | 0.00 | 0.00 | 0.00 | 67 | 1021.0 |
| 20260902075506 | 66 | 48 | 0.9 | 3.5 | 0.00 | 0.00 | 0.00 | 69 | 1021.0 |
| 20260902074119 | 65 | 65 | 1.7 | 3.5 | 0.00 | 0.00 | 0.00 | 70 | 1021.1 |
| 20260902073505 | 64 | 72 | 1.7 | 2.6 | 0.00 | 0.00 | 0.00 | 72 | 1021.2 |
| 20260902072506 | 63 | 41 | 0.9 | 2.6 | 0.00 | 0.00 | 0.00 | 73 | 1021.5 |
| 20260902071319 | 61 | 57 | 1.7 | 3.5 | 0.00 | 0.00 | 0.00 | 78 | 1021.8 |
| 20260902070505 | 61 | 30 | 0.9 | 2.6 | 0.00 | 0.00 | 0.00 | 78 | 1022.0 |
| 20260902065505 | 60 | 59 | 0.9 | 3.5 | 0.00 | 0.00 | 0.00 | 81 | 1022.0 |
| 20260902064119 | 60 | 147 | 0.0 | 3.5 | 0.00 | 0.00 | 0.00 | 79 | 1021.9 |
| 20260902062506 | 59 | 110 | 1.7 | 3.5 | 0.00 | 0.00 | 0.00 | 80 | 1022.1 |
| 20260902061119 | 57 | 71 | 0.9 | 2.6 | 0.00 | 0.00 | 0.00 | 86 | 1022.5 |
| 20260902060506 | 56 | 116 | 1.7 | 6.1 | 0.00 | 0.00 | 0.00 | 87 | 1022.6 |
| 20260902055506 | 56 | 139 | 1.7 | 5.2 | 0.00 | 0.00 | 0.00 | 86 | 1022.5 |
| 20260902054119 | 55 | 131 | 1.7 | 4.3 | 0.00 | 0.00 | 0.00 | 88 | 1022.6 |
| 20260902053506 | 55 | 154 | 2.6 | 5.2 | 0.00 | 0.00 | 0.00 | 87 | 1022.5 |
| 20260902052505 | 55 | 229 | 0.0 | 2.6 | 0.00 | 0.00 | 0.00 | 90 | 1022.6 |
| 20260902051119 | 54 | 118 | 0.0 | 1.7 | 0.00 | 0.00 | 0.00 | 91 | 1022.5 |
| 20260902050505 | 54 | 74 | 1.7 | 3.5 | 0.00 | 0.00 | 0.00 | 91 | 1022.6 |
| 20260902045505 | 54 | 88 | 1.7 | 1.7 | 0.00 | 0.00 | 0.00 | 91 | 1022.5 |
| 20260902044119 | 54 | 101 | 0.9 | 1.7 | 0.00 | 0.00 | 0.00 | 91 | 1022.5 |
| 20260902043506 | 55 | 113 | 0.9 | 1.7 | 0.00 | 0.00 | 0.00 | 89 | 1022.3 |
| 20260902042506 | 55 | 149 | 1.7 | 3.5 | 0.00 | 0.00 | 0.00 | 88 | 1022.2 |
| 20260902041119 | 55 | 166 | 0.9 | 2.6 | 0.00 | 0.00 | 0.00 | 90 | 1022.2 |
| 20260902040505 | 55 | 36 | 0.9 | 1.7 | 0.00 | 0.00 | 0.00 | 90 | 1022.2 |
| 20260902035506 | 55 | 126 | 0.9 | 2.6 | 0.00 | 0.00 | 0.00 | 88 | 1022.1 |
| 20260902034506 | 56 | 124 | 0.9 | 4.3 | 0.00 | 0.00 | 0.00 | 88 | 1022.1 |
| 20260902033505 | 56 | 144 | 1.7 | 5.2 | 0.00 | 0.00 | 0.00 | 86 | 1022.0 |
| 20260902032505 | 55 | 186 | 0.0 | 1.7 | 0.00 | 0.00 | 0.00 | 88 | 1022.1 |
| 20260902031505 | 56 | 137 | 0.9 | 3.5 | 0.00 | 0.00 | 0.00 | 87 | 1022.2 |
| 20260902030506 | 56 | 195 | 0.9 | 2.6 | 0.00 | 0.00 | 0.00 | 86 | 1022.1 |
| 20260902025505 | 56 | 112 | 1.7 | 5.2 | 0.00 | 0.00 | 0.00 | 88 | 1022.3 |
| 20260902024506 | 56 | 126 | 1.7 | 3.5 | 0.00 | 0.00 | 0.00 | 87 | 1022.3 |
| 20260902023506 | 56 | 191 | 0.9 | 3.5 | 0.00 | 0.00 | 0.00 | 86 | 1022.2 |
| 20260902022505 | 56 | 172 | 0.9 | 3.5 | 0.00 | 0.00 | 0.00 | 86 | 1022.2 |
| 20260902021505 | 56 | 150 | 0.9 | 2.6 | 0.00 | 0.00 | 0.00 | 88 | 1022.3 |
| 20260902015506 | 56 | 75 | 0.9 | 2.6 | 0.00 | 0.00 | 0.00 | 87 | 1022.2 |
| 20260902014506 | 57 | 83 | 1.7 | 2.6 | 0.00 | 0.00 | 0.00 | 87 | 1022.3 |
| 20260902013505 | 57 | 113 | 0.9 | 2.6 | 0.00 | 0.00 | 0.00 | 86 | 1022.3 |
| 20260902012506 | 57 | 112 | 0.9 | 1.7 | 0.00 | 0.00 | 0.00 | 86 | 1022.2 |
| 20260902011505 | 58 | 139 | 0.9 | 2.6 | 0.00 | 0.00 | 0.00 | 86 | 1022.2 |
| 20260902010506 | 58 | 111 | 0.9 | 1.7 | 0.00 | 0.00 | 0.00 | 85 | 1022.2 |
| 20260902005505 | 58 | 113 | 1.7 | 5.2 | 0.00 | 0.00 | 0.00 | 84 | 1022.1 |
| 20260901221119 | 61 | 113 | 2.6 | 5.2 | 0.00 | 0.00 | 0.00 | 77 | 1022.1 |
| 20260901220506 | 61 | 134 | 2.6 | 6.1 | 0.00 | 0.00 | 0.00 | 78 | 1022.1 |
| 20260901215506 | 60 | 174 | 0.9 | 2.6 | 0.00 | 0.00 | 0.00 | 82 | 1022.5 |